Tracking 19846 objects as of 18-Sep-2019
HD Live streaming from Space Station
objects crossing your sky now

COSMOS 1823 DEB

Track COSMOS 1823 DEB now!
10-day predictions


NORAD ID: 18729
Int'l Code: 1987-020G
Perigee: 1,482.5 km
Apogee: 1,687.1 km
Inclination: 73.8 °
Period: 117.7 minutes
Semi major axis: 7955 km
RCS: 0.1765 m2 (medium)
Launch date: February 20, 1987
Source: Commonwealth of Independent States (former USSR) (CIS)
Launch site: PLESETSK MISSILE AND SPACE COMPLEX (PKMTR)

Note: This is SATELLITE DEBRIS
aabbcc
Your satellite tracking list
Your tracking list is empty




NASA's NSSDC Master Catalog

Two Line Element Set (TLE):
1 18729U 87020G   19260.95984226  .00000019  00000-0  30618-3 0  9998
2 18729  73.8119 101.8482 0128603  84.1768  37.0809 12.23424895417836
Source of the keplerian elements: AFSPC